Location: Bazugues
(43.4465°N, 0.3432°E)
Time: 04:49:21
(UTC+00:00)

Cosmos 968 Rocket - Visible Passes

Search period start: 21 April 2026 00:00
Search period end: 01 May 2026 00:00
Orbit: 736 x 765 km, 74.0° (Epoch: 20 April)

Date Brightness Start Highest point End Pass type
(mag) Time Alt. Az. Time Alt. Az. Time Alt. Az.
21 Apr 4.9 23:05:28 10° N 23:08:52 34° NNE 23:08:52 34° NNE visible
22 Apr 5.8 00:47:40 10° NW 00:48:45 15° NW 00:48:45 15° NW visible
22 Apr 5.2 22:23:35 10° N 22:27:16 24° NE 22:27:16 24° NE visible
23 Apr 5.3 00:04:47 10° NNW 00:07:09 25° NW 00:07:09 25° NW visible
23 Apr 5.6 21:42:15 10° NNE 21:45:07 15° NE 21:45:41 14° ENE visible
23 Apr 4.7 23:22:17 10° NNW 23:25:34 40° NNW 23:25:34 40° NNW visible
24 Apr 4.4 22:40:04 10° N 22:44:00 42° NNE 22:44:00 42° NNE visible
25 Apr 5.8 00:22:38 10° NW 00:23:53 15° WNW 00:23:53 15° WNW visible
25 Apr 4.8 21:58:07 10° N 22:02:27 29° NE 22:02:27 29° NE visible
25 Apr 5.1 23:39:34 10° NW 23:42:21 27° WNW 23:42:21 27° WNW visible
26 Apr 5.4 21:16:34 10° NNE 21:19:56 17° NE 21:20:55 16° ENE visible
26 Apr 4.3 22:56:59 10° NNW 23:00:49 49° NW 23:00:49 49° NW visible
27 Apr 3.9 22:14:41 10° NNW 22:19:19 56° NE 22:19:19 56° NE visible
27 Apr 5.8 23:57:39 10° NW 23:59:12 15° WNW 23:59:12 15° WNW visible
28 Apr 4.4 21:32:39 10° N 21:37:23 33° ENE 21:37:50 33° ENE visible
28 Apr 5.0 23:14:23 10° NW 23:17:43 29° WNW 23:17:43 29° WNW visible
29 Apr 5.2 20:50:58 10° N 20:54:44 20° NE 20:56:22 17° ENE visible
29 Apr 3.9 22:31:42 10° NNW 22:36:15 57° WNW 22:36:15 57° WNW visible
30 Apr 5.7 20:10:11 10° NNE 20:11:54 11° NE 20:13:36 10° ENE visible
30 Apr 3.4 21:49:20 10° NNW 21:54:34 71° ENE 21:54:49 70° E visible
30 Apr 5.8 23:32:49 10° WNW 23:34:43 14° W 23:34:43 14° W visible
